Temperature
16 16 16 15 15 14 14 14 13 13 13 12 12 12 11 11 11 11 12 12 12 12 12 12 12 12 13 13 13 13 13 13 13 12 13 13 13 13 13 13 14 14 14
17 17 16 15 15 14 14 14 13 13 13 12 12 11 11 11 11 11 11 11 12 12 12 12 12 12 12 13 13 13 13 13 12 12 12 12 12 12 12 13 13 13 13
17 17 16 15 15 14 14 13 13 13 12 12 12 11 11 11 11 11 11 11 12 12 12 12 12 12 13 13 13 13 13 12 12 11 11 11 11 11 11 12 12 12 12
17 17 16 15 15 14 14 13 13 12 12 12 11 11 10 10 11 11 11 11 11 12 12 12 12 12 13 13 13 13 13 12 12 11 11 11 11 10 10 11 11 11 12
16 16 16 15 15 14 13 13 13 12 12 11 11 11 10 10 10 10 11 11 11 11 12 12 12 12 12 12 13 13 12 12 11 11 11 11 11 10 10 10 10 10 11
16 16 16 15 15 14 13 13 12 12 12 11 11 11 10 10 10 10 11 11 11 11 11 11 11 11 12 12 12 12 12 12 11 11 11 11 11 10 10 10 10 10 10
16 16 16 15 14 14 13 13 13 12 12 11 11 11 10 10 10 10 11 11 11 11 11 11 11 11 11 12 12 12 11 11 11 11 11 11 11 10 10 10 9 9 9
16 16 16 15 14 14 13 13 13 12 11 11 11 11 11 11 11 11 11 11 11 11 11 11 11 11 11 11 11 11 11 11 10 10 10 11 11 10 9 9 9 9 9
16 16 16 15 14 14 13 13 12 12 11 11 11 11 11 11 10 10 11 11 11 10 10 10 10 10 11 10 10 11 10 10 10 9 9 10 10 10 9 9 9 9 9
16 16 16 15 14 14 13 12 12 12 11 11 11 11 11 11 10 10 10 10 10 10 10 10 10 10 10 10 10 10 10 10 9 9 9 9 9 10 9 9 9 9 9
16 15 15 15 14 14 13 12 12 12 11 11 11 11 11 10 10 10 10 10 10 10 10 10 10 9 9 9 9 9 9 9 8 9 9 9 9 9 9 9 9 9 8
16 15 15 15 14 13 12 12 12 12 11 11 11 11 10 10 10 9 10 9 9 9 9 9 9 9 9 8 8 8 8 8 8 8 8 8 9 9 9 9 9 8 8
16 15 15 14 14 13 12 12 12 12 11 11 11 10 10 10 10 9 9 9 9 9 9 9 9 8 8 8 8 8 8 8 8 8 8 8 8 9 9 9 8 8 8
16 16 15 14 14 13 13 12 12 11 11 11 11 10 10 10 10 10 9 9 9 9 9 9 9 8 8 8 8 8 8 8 8 8 8 8 8 8 9 9 8 8 7
16 16 15 14 14 13 13 12 12 11 11 11 11 10 10 10 10 10 10 9 9 9 9 9 9 9 9 9 8 8 8 8 8 8 8 8 8 8 8 8 8 7 7
17 16 15 14 14 13 13 12 12 12 11 11 11 10 10 10 10 10 10 9 9 9 9 9 9 9 9 9 8 8 8 8 8 8 8 8 8 8 8 8 8 7 7
17 16 15 14 13 13 13 12 12 11 11 11 11 10 10 10 10 10 10 10 9 9 9 9 9 9 9 8 8 8 8 8 8 8 8 8 8 8 8 8 7 7 7
17 16 15 14 14 13 13 12 12 11 11 11 11 10 10 10 10 10 10 10 9 9 9 9 9 9 8 8 8 9 9 9 8 8 8 8 7 7 7 7 7 7 7
17 16 15 15 14 13 13 12 12 11 11 11 11 10 10 10 10 10 10 10 9 9 9 9 9 9 8 9 9 9 9 9 8 8 8 7 7 7 7 7 6 7 7
17 16 15 15 14 13 12 12 11 11 11 11 11 10 10 10 10 10 10 10 9 9 9 9 8 8 8 8 9 9 9 9 8 8 7 7 7 6 6 6 6 6 6
17 16 15 15 14 13 12 12 12 11 11 11 11 10 10 10 10 10 10 10 9 9 9 9 8 8 8 8 8 9 9 8 7 7 7 7 6 6 6 5 5 5 5
17 16 15 15 14 13 13 12 12 12 11 11 11 10 10 10 10 10 10 10 9 9 9 9 9 8 8 8 7 7 7 7 7 7 7 6 6 6 5 5 5 5 5
16 16 15 15 14 13 13 12 11 11 11 11 10 10 10 10 10 10 10 10 9 9 9 9 9 8 8 7 7 6 6 5 6 6 6 5 5 5 5 5 5 4 4
16 16 15 15 14 13 12 12 12 12 11 11 11 11 10 10 10 10 10 10 9 9 9 9 8 8 8 7 7 6 5 5 4 4 6 5 5 5 4 4 4 4 4
16 15 14 14 13 13 12 12 12 12 11 11 11 11 10 10 10 10 10 10 9 9 9 9 8 8 7 7 6 6 5 5 4 3 3 5 5 5 4 4 4 4 3
15 14 14 13 13 12 12 12 11 11 11 11 11 11 10 10 10 10 10 9 9 9 9 8 8 7 7 6 6 5 5 4 4 3 2 3 4 5 4 4 4 3 2
Wind_Speed
11 18 20 17 16 15 15 15 15 15 14 14 14 13 14 14 15 15 16 16 16 16 17 17 17 18 18 18 17 17 16 16 16 17 19 19 18 18 19 19 17 17 18
15 20 20 18 17 16 16 16 16 15 15 14 13 13 13 13 14 15 15 15 15 16 16 16 16 16 17 16 16 16 15 14 14 14 16 17 17 17 17 17 17 15 17
16 21 20 19 18 17 17 17 16 15 14 14 13 13 13 13 13 13 14 14 14 15 15 15 15 16 15 15 15 14 14 13 12 13 14 15 15 16 16 15 15 15 15
18 21 19 19 18 17 17 16 16 15 14 14 13 13 12 12 13 13 13 13 13 14 14 14 14 14 14 14 14 13 12 12 12 13 14 15 14 14 14 14 14 14 14
16 20 20 20 18 18 17 17 16 15 14 14 13 13 12 12 12 12 12 12 12 12 12 12 12 13 12 12 12 11 11 11 11 12 13 14 13 12 12 12 12 12 12
14 20 21 20 18 18 18 17 16 15 14 14 13 12 12 11 11 11 11 10 10 10 11 11 11 11 11 11 11 10 10 10 10 10 11 13 12 11 10 10 10 10 10
14 20 21 20 19 18 18 17 16 15 15 14 13 12 11 10 10 9 9 9 9 8 9 9 9 9 9 9 9 9 9 10 6 7 8 10 10 10 10 9 9 9 8
14 19 20 20 19 18 18 17 16 15 15 14 13 12 11 10 9 8 8 7 7 7 7 7 7 8 8 8 7 7 7 8 8 6 7 9 8 9 9 9 9 8 8
14 17 18 18 18 18 18 17 16 15 14 14 13 12 10 9 8 7 7 6 5 5 5 5 5 5 5 5 5 5 6 8 9 4 5 8 7 9 9 10 10 9 9
12 14 15 18 18 17 17 17 17 15 15 14 13 12 11 10 8 7 7 5 4 3 3 3 3 3 3 3 3 4 7 10 9 2 6 6 6 9 10 10 11 11 10
11 12 13 14 17 18 17 17 17 16 15 15 14 13 12 11 11 9 8 6 3 2 1 0 2 3 5 6 5 6 8 9 5 1 4 4 5 9 11 11 11 11 11
12 12 12 12 14 16 16 17 16 15 16 15 15 14 12 9 8 8 9 7 5 4 4 4 5 7 8 5 5 7 7 7 8 4 4 3 5 9 11 11 11 12 11
12 11 11 11 12 13 11 14 13 14 15 14 15 14 11 8 7 7 8 8 9 8 7 6 8 8 5 3 4 5 5 6 7 5 2 1 5 8 10 11 11 11 11
13 12 11 10 10 12 12 11 11 10 11 10 12 13 10 7 5 5 5 6 6 5 4 3 5 4 4 4 4 5 6 6 6 6 1 1 3 6 9 10 10 10 10
13 13 12 12 11 10 9 8 10 9 11 12 12 11 10 6 4 4 3 4 3 2 1 2 4 3 4 5 6 7 6 7 8 7 2 2 1 4 7 8 9 10 10
14 14 12 12 11 10 8 6 7 9 11 12 12 11 11 8 6 4 3 3 2 1 0 2 4 3 4 4 5 7 7 7 7 8 5 1 1 1 4 7 8 9 10
14 14 13 13 12 12 10 9 8 10 11 9 11 12 11 9 7 5 2 2 2 1 1 2 4 4 3 3 4 6 6 7 7 7 6 3 1 0 2 4 7 9 10
13 14 14 12 12 13 11 9 7 10 11 9 11 12 11 9 7 4 2 2 2 2 1 1 1 2 3 3 4 4 5 6 6 5 5 4 3 2 1 2 5 7 9
12 14 15 13 13 12 11 9 8 9 9 10 11 10 10 9 8 5 3 3 4 2 1 0 1 1 3 3 4 5 4 3 3 4 3 2 2 2 2 2 4 6 8
11 13 14 14 13 12 10 8 6 7 6 8 9 10 11 9 8 6 4 4 4 2 1 1 1 1 1 2 5 6 5 4 2 1 2 2 2 2 3 4 5 5 8
10 12 14 15 13 11 10 9 8 7 6 6 6 10 11 10 9 6 4 4 3 2 2 2 2 2 2 3 3 5 5 3 1 1 1 2 3 4 5 5 5 6 8
12 12 13 14 14 13 10 9 8 7 6 5 5 8 10 10 9 7 5 4 4 3 3 3 3 2 2 3 2 3 5 5 4 3 2 1 2 5 5 7 8 9 9
12 13 13 14 14 13 11 8 8 6 5 4 5 5 7 10 10 8 6 5 4 3 3 3 3 2 1 2 2 2 1 3 4 4 3 2 2 3 4 7 8 10 10
12 11 11 12 13 13 13 12 13 9 7 6 6 6 6 9 9 9 8 7 5 4 4 3 3 2 2 0 1 1 1 1 1 4 5 4 4 5 5 5 7 10 10
11 10 11 12 12 12 13 13 13 10 7 7 8 9 7 6 8 9 8 7 5 4 4 4 3 2 1 1 0 0 1 1 2 3 5 5 5 4 5 5 7 9 10
10 10 10 12 12 12 13 13 13 12 11 12 11 10 8 6 5 8 8 7 6 4 5 4 3 2 1 1 1 1 2 2 2 2 4 6 7 5 7 6 5 7 10
Wind_Direction
132 141 148 144 140 135 129 123 117 111 105 99 94 89 84 80 76 73 71 68 67 67 65 64 63 62 61 60 59 59 58 57 56 57 57 55 53 53 51 49 50 46 48
136 141 148 146 142 137 131 125 120 115 109 103 98 93 88 83 78 75 73 70 68 67 67 66 64 63 62 60 59 59 58 57 53 54 59 57 52 52 51 49 49 48 48
134 141 149 147 144 139 133 126 123 119 113 107 102 98 93 89 84 79 76 74 71 69 68 67 66 64 62 60 58 57 56 53 43 45 54 55 52 50 49 48 47 46 45
136 143 149 149 146 143 138 133 129 124 119 113 108 103 97 92 88 84 81 78 75 73 71 69 66 64 62 60 58 55 52 45 36 45 48 48 45 48 47 46 46 45 43
136 143 146 149 147 144 140 136 133 130 125 119 114 108 101 96 91 87 84 81 78 76 73 70 67 65 62 60 56 52 45 31 29 46 48 49 39 39 43 41 40 40 39
137 138 145 151 150 148 144 141 140 137 132 126 120 114 107 102 96 92 88 84 80 77 73 70 67 63 60 56 51 45 35 22 41 50 55 51 30 28 34 34 32 32 31
140 138 148 153 152 150 147 145 144 141 138 132 127 121 115 110 104 99 93 87 82 76 71 68 64 60 54 49 44 36 21 1 31 56 65 63 32 20 22 22 19 18 19
138 140 150 155 156 154 152 149 147 146 145 140 135 129 124 120 114 107 101 93 84 77 70 63 57 53 48 43 37 23 2 350 351 29 72 68 32 10 8 6 3 2 1
138 141 150 158 159 158 156 155 153 153 152 149 144 138 136 133 127 120 113 104 94 82 70 62 53 46 41 33 20 355 336 326 318 322 68 67 27 3 356 352 349 346 344
142 146 154 161 162 161 160 160 159 160 159 155 151 147 147 148 145 141 135 126 115 98 75 55 37 12 347 327 317 309 307 305 292 318 84 70 20 353 344 341 339 338 336
153 154 159 164 165 165 164 165 163 163 162 157 156 158 162 169 170 165 148 150 150 151 150 344 306 294 287 274 265 276 289 291 309 355 104 76 11 345 335 332 331 330 329
168 167 163 164 165 165 166 163 168 166 166 168 166 172 184 185 169 157 160 177 191 210 232 247 263 276 276 264 246 263 283 322 337 349 107 71 360 337 329 326 325 325 325
173 171 166 163 162 163 160 164 169 169 172 182 174 178 182 168 161 166 174 193 212 222 232 236 252 260 279 304 288 286 306 326 317 332 119 78 345 333 327 324 323 324 324
173 173 168 161 161 163 162 167 165 164 170 174 175 178 173 165 175 181 185 185 208 212 213 243 264 276 298 304 316 318 320 317 309 308 247 219 330 331 328 327 327 328 330
173 172 171 166 165 164 162 166 169 167 169 171 173 180 171 165 178 183 194 191 208 209 204 269 296 327 334 345 339 326 317 319 318 323 316 252 271 324 330 331 333 335 337
174 172 171 173 169 165 167 166 168 168 167 166 167 177 178 175 177 181 197 191 196 184 273 321 327 346 335 335 324 313 311 321 324 328 323 288 230 326 336 339 340 341 341
172 171 173 176 173 169 171 172 168 166 166 163 166 177 179 179 179 175 177 160 156 144 356 348 336 336 317 323 325 326 335 328 328 327 346 4 55 78 343 346 346 342 339
169 171 174 176 177 175 173 171 167 170 167 166 166 173 180 179 175 175 163 154 126 97 47 13 335 343 338 350 340 331 325 317 320 332 342 347 32 56 22 326 336 336 335
175 170 171 173 178 178 173 168 167 168 165 165 163 165 172 174 180 169 155 142 127 114 83 16 27 32 356 351 329 311 301 298 306 322 328 10 31 1 336 296 307 315 322
176 169 168 171 178 175 171 167 164 164 164 160 158 161 165 170 172 160 148 136 122 112 98 63 43 31 14 358 326 307 289 271 257 304 345 357 334 326 341 335 319 318 321
169 168 168 170 177 174 174 172 170 169 163 156 154 161 163 162 160 150 136 126 118 125 126 81 61 24 9 12 349 324 311 288 155 85 19 3 349 351 341 325 330 337 332
172 173 170 172 177 177 175 171 167 159 156 150 143 149 155 155 152 146 137 134 124 115 96 82 76 39 10 37 35 357 345 343 359 346 329 328 345 352 341 336 337 329 325
175 177 177 174 176 176 167 159 150 133 125 135 152 154 155 153 147 145 143 131 125 123 123 109 98 91 43 8 57 87 44 313 321 315 319 333 352 337 321 319 316 315 318
176 173 172 172 173 173 168 166 162 162 163 166 160 156 154 150 148 149 144 135 128 123 126 122 106 104 105 32 357 61 180 201 291 312 314 325 338 320 310 312 310 306 306
166 167 170 169 171 173 172 169 168 167 164 152 150 153 154 148 147 147 145 138 134 132 132 125 118 116 118 143 149 325 314 306 231 237 286 303 314 302 311 302 296 292 294
157 161 166 167 172 173 174 174 175 172 165 155 156 161 158 152 149 151 147 145 145 139 135 134 136 148 163 178 201 207 206 230 259 259 275 297 299 293 298 282 279 279 279
Height
1528 1530 1532 1534 1535 1537 1538 1539 1540 1541 1541 1542 1542 1543 1543 1543 1543 1544 1544 1544 1544 1544 1544 1543 1543 1543 1542 1542 1542 1542 1542 1543 1543 1542 1542 1542 1541 1541 1541 1540 1540 1540 1540
1527 1529 1532 1534 1535 1537 1539 1540 1541 1542 1542 1543 1543 1543 1544 1544 1544 1544 1544 1544 1545 1545 1544 1544 1544 1544 1543 1543 1543 1543 1543 1543 1544 1543 1543 1542 1542 1541 1541 1540 1540 1540 1540
1527 1529 1531 1534 1536 1537 1539 1540 1541 1542 1543 1543 1544 1544 1545 1545 1545 1545 1545 1545 1545 1546 1545 1545 1545 1544 1544 1544 1544 1544 1544 1544 1545 1545 1544 1543 1542 1542 1541 1541 1540 1540 1540
1527 1529 1531 1534 1536 1538 1539 1541 1542 1543 1543 1544 1545 1545 1546 1546 1546 1546 1546 1546 1546 1546 1546 1546 1546 1546 1545 1545 1545 1545 1545 1545 1545 1545 1544 1544 1543 1543 1542 1542 1541 1540 1540
1528 1529 1531 1534 1536 1538 1539 1541 1542 1543 1544 1545 1546 1546 1547 1547 1547 1547 1547 1547 1547 1547 1547 1547 1547 1547 1547 1547 1546 1546 1546 1546 1546 1546 1545 1545 1544 1544 1543 1542 1542 1541 1540
1528 1529 1532 1534 1536 1538 1539 1541 1542 1543 1545 1545 1546 1547 1547 1548 1548 1548 1548 1548 1548 1548 1548 1548 1548 1548 1548 1548 1548 1548 1547 1547 1547 1547 1546 1546 1545 1545 1544 1543 1542 1542 1541
1528 1529 1532 1534 1536 1537 1539 1541 1542 1544 1545 1546 1547 1547 1548 1548 1548 1549 1549 1549 1549 1549 1549 1549 1549 1549 1549 1549 1549 1549 1548 1548 1547 1547 1547 1546 1546 1545 1545 1544 1543 1543 1542
1527 1528 1531 1533 1535 1537 1539 1541 1542 1544 1545 1546 1547 1548 1548 1549 1549 1549 1550 1550 1550 1550 1550 1550 1550 1550 1550 1550 1549 1549 1549 1548 1548 1548 1547 1546 1546 1545 1545 1544 1543 1543 1542
1527 1528 1530 1532 1534 1537 1539 1540 1542 1543 1545 1546 1547 1548 1549 1549 1550 1550 1550 1550 1551 1551 1551 1551 1551 1551 1551 1550 1550 1550 1549 1549 1548 1548 1547 1546 1546 1545 1544 1544 1543 1542 1542
1526 1527 1529 1531 1533 1535 1538 1540 1541 1543 1544 1546 1547 1548 1549 1549 1550 1550 1551 1551 1551 1551 1551 1551 1551 1551 1551 1551 1550 1550 1549 1549 1548 1548 1547 1546 1545 1544 1543 1543 1542 1541 1541
1525 1526 1528 1530 1532 1534 1536 1538 1540 1542 1544 1545 1546 1547 1548 1549 1550 1550 1551 1552 1552 1552 1552 1552 1551 1551 1551 1550 1550 1550 1549 1548 1548 1548 1546 1545 1544 1543 1542 1541 1540 1540 1539
1523 1525 1526 1528 1530 1532 1535 1537 1539 1541 1542 1544 1545 1547 1548 1549 1550 1551 1551 1552 1552 1552 1552 1552 1551 1551 1551 1550 1550 1549 1549 1548 1548 1547 1545 1544 1543 1541 1540 1539 1538 1538 1537
1519 1522 1524 1526 1528 1531 1533 1535 1537 1539 1541 1543 1544 1546 1548 1549 1550 1551 1551 1551 1551 1551 1551 1551 1551 1551 1551 1550 1549 1549 1548 1547 1546 1545 1544 1542 1541 1540 1538 1537 1536 1536 1535
1517 1519 1522 1524 1526 1529 1531 1533 1535 1537 1539 1542 1543 1545 1547 1548 1549 1550 1551 1551 1551 1551 1551 1551 1551 1551 1550 1550 1549 1548 1547 1546 1545 1544 1542 1540 1539 1537 1536 1535 1534 1533 1533
1513 1516 1518 1521 1523 1526 1529 1531 1533 1536 1538 1540 1542 1544 1545 1547 1548 1549 1550 1550 1550 1551 1551 1550 1550 1550 1549 1548 1547 1546 1545 1544 1543 1542 1540 1538 1537 1535 1534 1533 1532 1531 1530
1508 1511 1514 1517 1520 1522 1525 1528 1531 1533 1536 1538 1540 1542 1544 1545 1547 1548 1548 1549 1549 1549 1549 1549 1549 1548 1547 1546 1545 1544 1543 1542 1540 1539 1538 1536 1535 1533 1532 1531 1529 1528 1527
1504 1506 1510 1513 1516 1519 1522 1525 1528 1531 1533 1536 1538 1540 1542 1543 1545 1546 1547 1547 1547 1548 1547 1547 1547 1546 1545 1544 1543 1542 1541 1539 1538 1537 1535 1534 1532 1531 1530 1529 1527 1526 1525
1500 1502 1505 1508 1512 1515 1518 1522 1525 1528 1531 1533 1535 1537 1539 1541 1542 1544 1545 1545 1545 1545 1545 1545 1544 1543 1543 1541 1540 1539 1538 1536 1535 1534 1533 1532 1530 1529 1528 1527 1525 1524 1522
1495 1497 1500 1503 1507 1511 1514 1518 1521 1525 1528 1530 1532 1535 1537 1538 1540 1541 1542 1543 1543 1543 1543 1542 1542 1541 1540 1539 1538 1536 1535 1533 1532 1531 1531 1530 1529 1527 1526 1524 1523 1521 1520
1490 1493 1495 1498 1502 1507 1511 1514 1518 1521 1524 1527 1529 1531 1534 1536 1537 1539 1540 1540 1541 1541 1540 1540 1539 1539 1538 1536 1535 1534 1532 1531 1530 1529 1529 1528 1527 1526 1524 1523 1521 1519 1517
1485 1488 1490 1493 1497 1502 1505 1509 1512 1516 1520 1523 1526 1528 1531 1533 1534 1536 1537 1538 1538 1538 1538 1538 1537 1536 1535 1534 1532 1531 1530 1529 1528 1528 1527 1526 1525 1524 1523 1521 1519 1517 1514
1478 1482 1485 1488 1491 1496 1500 1504 1508 1512 1516 1519 1522 1525 1527 1530 1531 1533 1534 1535 1535 1536 1536 1535 1535 1534 1533 1532 1531 1529 1528 1528 1527 1526 1525 1524 1523 1522 1520 1518 1516 1514 1511
1472 1476 1479 1482 1486 1491 1496 1501 1505 1508 1512 1515 1518 1521 1524 1526 1528 1530 1531 1532 1532 1533 1533 1533 1533 1532 1531 1531 1530 1530 1528 1526 1525 1523 1522 1521 1520 1518 1517 1515 1513 1510 1508
1466 1470 1474 1478 1482 1486 1491 1495 1498 1501 1505 1508 1513 1517 1520 1523 1525 1527 1528 1529 1530 1530 1530 1530 1530 1530 1529 1529 1528 1527 1527 1526 1524 1520 1519 1518 1517 1515 1513 1511 1508 1506 1503
1461 1465 1469 1473 1477 1482 1486 1490 1494 1498 1502 1506 1509 1513 1516 1519 1521 1523 1525 1526 1527 1527 1528 1528 1528 1527 1527 1526 1526 1525 1524 1523 1522 1520 1515 1513 1511 1510 1508 1506 1504 1501 1499
1457 1460 1464 1468 1472 1477 1481 1486 1490 1494 1498 1501 1504 1508 1512 1515 1517 1520 1521 1522 1523 1524 1525 1525 1525 1525 1524 1524 1523 1522 1521 1520 1519 1517 1513 1509 1506 1504 1503 1501 1498 1496 1494